CDT,Max TemperatureF,Mean TemperatureF,Min TemperatureF,Max Dew PointF,MeanDew PointF,Min DewpointF,Max Humidity, Mean Humidity, Min Humidity, Max Sea Level PressureIn, Mean Sea Level PressureIn, Min Sea Level PressureIn, Max VisibilityMiles, Mean VisibilityMiles, Min VisibilityMiles, Max Wind SpeedMPH, Mean Wind SpeedMPH, Max Gust SpeedMPH,PrecipitationIn, CloudCover, Events, WindDirDegrees
2011-10-1,69,55,41,43,38,34,89,59,28,30.33,30.26,30.18,10,10,10,9,2,,0.00,0,,54
2011-10-2,75,56,37,44,39,36,100,62,25,30.31,30.25,30.18,10,10,10,8,1,,0.00,0,,175
2011-10-3,81,60,40,46,40,35,99,53,20,30.27,30.22,30.16,10,10,10,8,2,,0.00,0,Rain,170
2011-10-4,84,66,48,48,45,40,80,51,24,30.26,30.19,30.14,10,10,10,12,6,,0.00,0,,168
2011-10-5,84,66,50,48,44,40,86,49,21,30.20,30.13,30.07,10,9,1,13,8,,0.00,0,,163
2011-10-6,85,70,54,52,48,43,78,50,23,30.15,30.07,30.01,10,10,10,18,9,28,0.00,2,,157
2011-10-7,84,73,63,56,53,51,64,51,36,30.14,30.09,30.04,10,10,10,23,13,32,0.00,0,,159
2011-10-8,85,73,63,58,53,50,72,53,32,30.18,30.13,30.09,10,10,10,20,12,28,0.00,0,,158
2011-10-9,82,70,58,57,54,50,90,61,35,30.20,30.14,30.07,10,10,10,17,8,23,0.00,0,,141
2011-10-10,70,64,58,64,56,47,100,73,55,30.09,30.03,29.98,10,10,10,12,7,,0.00,4,Rain,168
2011-10-11,81,68,56,66,59,56,100,86,45,29.98,29.91,29.82,10,8,1,13,4,16,0.00,3,,165
2011-10-12,80,69,58,64,58,53,100,76,40,29.80,29.69,29.61,10,10,7,16,7,24,0.00,3,Rain-Thunderstorm,216
2011-10-13,75,64,54,55,43,34,92,53,24,29.81,29.77,29.72,10,10,10,23,10,31,0.00,0,,295
2011-10-14,68,57,46,37,33,28,64,43,25,30.05,29.94,29.83,10,10,10,18,8,26,0.00,3,,287
2011-10-15,73,54,36,46,35,31,82,47,23,30.13,30.03,29.87,10,10,10,15,5,,0.00,0,,215
2011-10-16,77,63,49,52,44,34,62,49,34,30.02,29.91,29.81,10,10,10,20,15,25,0.00,1,,293
2011-10-17,55,48,40,45,40,30,100,77,38,30.02,29.98,29.91,10,9,4,15,6,21,0.16,8,Rain-Thunderstorm,38
2011-10-18,52,46,39,46,39,31,100,77,44,30.01,29.96,29.94,10,10,6,20,9,30,0.02,6,Rain,328
2011-10-19,48,41,35,34,33,31,87,68,56,29.99,29.97,29.94,10,10,10,20,12,25,0.00,7,,326
2011-10-20,55,45,35,31,30,28,82,57,36,30.12,30.02,29.96,10,10,10,18,10,23,0.00,1,,297
2011-10-21,67,48,29,37,32,27,92,58,28,30.21,30.14,30.08,10,10,10,12,4,,0.00,0,,202
2011-10-22,73,56,40,42,39,37,88,54,27,30.12,30.07,30.02,10,10,2,9,4,,0.00,2,,230
2011-10-23,77,64,52,51,43,40,69,51,29,30.01,29.98,29.93,10,10,10,13,3,,0.00,2,,213
2011-10-24,80,60,41,52,47,39,100,65,24,30.16,30.08,30.01,10,10,2,16,7,,0.00,0,,185
2011-10-25,85,72,61,57,53,44,73,54,36,29.99,29.84,29.69,10,10,10,37,20,46,0.00,2,,213
2011-10-26,59,52,44,48,44,41,99,83,59,30.04,29.98,29.87,10,10,6,15,10,,0.07,6,Rain-Thunderstorm,360
2011-10-27,56,48,40,45,36,25,100,69,33,30.18,30.11,30.05,10,10,9,15,7,,0.00,4,Rain,353
2011-10-28,61,45,29,35,27,20,97,55,22,30.25,30.20,30.12,10,10,10,15,4,20,0.00,0,,291
2011-10-29,68,48,29,31,27,23,77,47,22,30.21,30.10,29.99,10,10,10,18,8,26,0.00,1,,204
2011-10-30,64,50,38,35,31,26,63,45,30,30.10,30.03,29.98,10,10,10,20,14,28,0.00,1,,241
2011-10-31,68,50,32,34,28,23,69,44,24,30.17,30.09,30.02,10,10,10,13,7,20,0.00,0,,211